• In Uzbekistan
  • List of Countries
  • For 7 days
  • Water Temperature
  • Satellite Maps
  • Weather Map
  • Weather Widgets
  • user-avatar
    Login

    Hourly Weather Enilchek

    Today, 18 November, Sunday

    Time Temperature Precipitation Wind Pressure Humidity
    00:00 -17°C° 0 mm 3 mps 506 mmHg 27%
    01:00 -17°C° 0 mm 3 mps 505 mmHg 27%
    02:00 -17°C° 0 mm 3 mps 505 mmHg 26%
    03:00 -18°C° 0 mm 3 mps 505 mmHg 27%
    04:00 -19°C° 0 mm 4 mps 505 mmHg 28%
    05:00 -19°C° 0 mm 4 mps 505 mmHg 29%
    06:00 -19°C° 0 mm 4 mps 505 mmHg 29%
    07:00 -19°C° 0 mm 4 mps 506 mmHg 30%
    08:00 -18°C° 0 mm 4 mps 506 mmHg 31%
    09:00 -16°C° 0 mm 3 mps 507 mmHg 33%
    10:00 -14°C° 0 mm 3 mps 507 mmHg 35%
    11:00 -12°C° 0 mm 3 mps 508 mmHg 38%
    12:00 -12°C° 0 mm 3 mps 508 mmHg 38%
    13:00 -12°C° 0 mm 3 mps 508 mmHg 38%
    14:00 -12°C° 0 mm 3 mps 508 mmHg 38%
    15:00 -13°C° 0 mm 3 mps 507 mmHg 37%
    16:00 -15°C° 0 mm 3 mps 507 mmHg 35%
    17:00 -16°C° 0 mm 3 mps 507 mmHg 34%
    18:00 -17°C° 0 mm 4 mps 507 mmHg 34%
    19:00 -17°C° 0 mm 4 mps 507 mmHg 35%
    20:00 -18°C° 0 mm 4 mps 507 mmHg 35%
    21:00 -18°C° 0 mm 4 mps 507 mmHg 36%
    22:00 -18°C° 0 mm 4 mps 507 mmHg 37%
    23:00 -18°C° 0 mm 4 mps 507 mmHg 38%

    Tomorrow, 19 November, Monday

    Time Temperature Precipitation Wind Pressure Humidity
    00:00 -18°C° 0 mm 4 mps 507 mmHg 39%
    01:00 -18°C° 0 mm 4 mps 506 mmHg 40%
    02:00 -18°C° 0 mm 4 mps 506 mmHg 41%
    03:00 -18°C° 0 mm 4 mps 506 mmHg 42%
    04:00 -18°C° 0 mm 4 mps 506 mmHg 43%
    05:00 -18°C° 0 mm 4 mps 506 mmHg 44%
    06:00 -18°C° 0 mm 4 mps 507 mmHg 45%
    07:00 -18°C° 0 mm 4 mps 507 mmHg 46%
    08:00 -16°C° 0 mm 3 mps 508 mmHg 47%
    09:00 -15°C° 0 mm 3 mps 509 mmHg 48%
    10:00 -13°C° 0 mm 3 mps 509 mmHg 48%
    11:00 -12°C° 0 mm 3 mps 510 mmHg 49%
    12:00 -12°C° 0 mm 3 mps 510 mmHg 49%
    13:00 -10°C° 0 mm 3 mps 510 mmHg 49%
    14:00 -10°C° 0 mm 3 mps 510 mmHg 50%
    15:00 -13°C° 0 mm 3 mps 509 mmHg 48%
    16:00 -14°C° 0 mm 3 mps 509 mmHg 47%
    17:00 -15°C° 0 mm 3 mps 509 mmHg 46%
    18:00 -15°C° 0 mm 3 mps 509 mmHg 45%
    19:00 -16°C° 0 mm 3 mps 509 mmHg 43%
    20:00 -17°C° 0 mm 4 mps 509 mmHg 42%
    21:00 -16°C° 0 mm 3 mps 509 mmHg 40%
    22:00 -16°C° 0 mm 3 mps 509 mmHg 39%
    23:00 -16°C° 0 mm 3 mps 509 mmHg 37%

    Day after tomorrow, 20 November, Tuesday

    Time Temperature Precipitation Wind Pressure Humidity
    00:00 -15°C° 0 mm 3 mps 509 mmHg 35%
    01:00 -15°C° 0 mm 3 mps 509 mmHg 32%
    02:00 -15°C° 0 mm 3 mps 509 mmHg 30%
    03:00 -15°C° 0 mm 3 mps 508 mmHg 29%
    04:00 -14°C° 0 mm 2 mps 508 mmHg 29%
    05:00 -14°C° 0 mm 2 mps 508 mmHg 28%
    06:00 -14°C° 0 mm 2 mps 508 mmHg 34%
    07:00 -13°C° 0 mm 2 mps 509 mmHg 40%
    08:00 -13°C° 0 mm 2 mps 509 mmHg 45%
    09:00 -13°C° 0 mm 3 mps 510 mmHg 50%
    10:00 -12°C° 0 mm 3 mps 510 mmHg 55%
    11:00 -10°C° 0 mm 3 mps 510 mmHg 60%
    12:00 -10°C° 0 mm 3 mps 510 mmHg 62%
    13:00 -9°C° 0 mm 2 mps 509 mmHg 65%
    14:00 -9°C° 0 mm 2 mps 509 mmHg 67%
    15:00 -10°C° 0 mm 2 mps 509 mmHg 68%
    16:00 -10°C° 0 mm 2 mps 508 mmHg 68%
    17:00 -12°C° 0 mm 2 mps 508 mmHg 69%
    18:00 -12°C° 0 mm 2 mps 508 mmHg 69%
    19:00 -12°C° 0 mm 2 mps 509 mmHg 69%
    20:00 -12°C° 0 mm 2 mps 509 mmHg 70%
    21:00 -12°C° 0 mm 2 mps 509 mmHg 69%
    22:00 -13°C° 0 mm 2 mps 509 mmHg 68%
    23:00 -13°C° 0 mm 2 mps 509 mmHg 68%

    21 November, Wednesday

    Time Temperature Precipitation Wind Pressure Humidity
    00:00 -13°C° 0 mm 2 mps 509 mmHg 68%
    01:00 -13°C° 0 mm 2 mps 509 mmHg 68%
    02:00 -13°C° 0 mm 2 mps 509 mmHg 68%
    03:00 -13°C° 0 mm 2 mps 509 mmHg 67%
    04:00 -14°C° 0 mm 2 mps 509 mmHg 66%
    05:00 -16°C° 0 mm 3 mps 508 mmHg 65%
    06:00 -16°C° 0 mm 3 mps 509 mmHg 63%
    07:00 -16°C° 0 mm 3 mps 509 mmHg 61%
    08:00 -16°C° 0 mm 3 mps 509 mmHg 59%
    09:00 -14°C° 0 mm 3 mps 510 mmHg 57%
    10:00 -10°C° 0 mm 2 mps 511 mmHg 55%
    11:00 -9°C° 0 mm 2 mps 511 mmHg 52%
    12:00 -9°C° 0 mm 2 mps 511 mmHg 50%
    13:00 -8°C° 0 mm 2 mps 510 mmHg 47%
    14:00 -8°C° 0 mm 2 mps 510 mmHg 44%
    15:00 -9°C° 0 mm 2 mps 509 mmHg 42%
    16:00 -10°C° 0 mm 2 mps 508 mmHg 40%
    17:00 -13°C° 0 mm 3 mps 508 mmHg 38%
    18:00 -13°C° 0 mm 3 mps 508 mmHg 39%
    19:00 -13°C° 0 mm 3 mps 508 mmHg 39%
    20:00 -13°C° 0 mm 3 mps 508 mmHg 39%
    21:00 -13°C° 0 mm 3 mps 507 mmHg 40%
    22:00 -13°C° 0 mm 3 mps 507 mmHg 42%
    23:00 -14°C° 0 mm 3 mps 506 mmHg 43%

    22 November, Thursday

    Time Temperature Precipitation Wind Pressure Humidity
    00:00 -13°C° 0 mm 3 mps 506 mmHg 41%
    01:00 -13°C° 0 mm 3 mps 506 mmHg 40%
    02:00 -13°C° 0 mm 3 mps 506 mmHg 38%
    03:00 -13°C° 0 mm 3 mps 506 mmHg 37%
    04:00 -12°C° 0 mm 2 mps 505 mmHg 36%
    05:00 -12°C° 0 mm 2 mps 505 mmHg 34%
    06:00 -12°C° 0 mm 2 mps 506 mmHg 34%
    07:00 -10°C° 0 mm 2 mps 506 mmHg 33%
    08:00 -10°C° 0 mm 2 mps 506 mmHg 32%
    09:00 -8°C° 0 mm 2 mps 507 mmHg 35%
    10:00 -6°C° 0 mm 1 mps 508 mmHg 38%
    11:00 -4°C° 0 mm 1 mps 508 mmHg 41%
    12:00 -3°C° 0 mm 1 mps 508 mmHg 43%
    13:00 -3°C° 0 mm 1 mps 508 mmHg 44%
    14:00 -3°C° 0 mm 1 mps 507 mmHg 45%
    15:00 -6°C° 0 mm 2 mps 507 mmHg 44%
    16:00 -7°C° 0 mm 2 mps 507 mmHg 44%
    17:00 -8°C° 0 mm 2 mps 506 mmHg 43%
    18:00 -8°C° 0 mm 2 mps 506 mmHg 43%
    19:00 -9°C° 0 mm 2 mps 507 mmHg 43%
    20:00 -9°C° 0 mm 2 mps 507 mmHg 44%
    21:00 -9°C° 0 mm 2 mps 507 mmHg 46%
    22:00 -9°C° 0 mm 2 mps 507 mmHg 48%
    23:00 -9°C° 0 mm 2 mps 507 mmHg 50%

    23 November, Friday

    Time Temperature Precipitation Wind Pressure Humidity
    00:00 -9°C° 0 mm 2 mps 507 mmHg 53%
    01:00 -9°C° 0 mm 2 mps 507 mmHg 56%
    02:00 -9°C° 0 mm 2 mps 507 mmHg 59%
    03:00 -9°C° 0.1 mm 2 mps 507 mmHg 63%
    04:00 -12°C° 0.1 mm 3 mps 508 mmHg 66%
    05:00 -12°C° 0.1 mm 3 mps 508 mmHg 69%
    06:00 -12°C° 0 mm 3 mps 508 mmHg 68%
    07:00 -12°C° 0 mm 3 mps 509 mmHg 66%
    08:00 -12°C° 0 mm 3 mps 509 mmHg 65%
    09:00 -10°C° 0 mm 3 mps 510 mmHg 62%
    10:00 -7°C° 0 mm 2 mps 510 mmHg 59%
    11:00 -6°C° 0 mm 2 mps 511 mmHg 55%
    12:00 -6°C° 0 mm 2 mps 510 mmHg 54%
    13:00 -6°C° 0 mm 2 mps 510 mmHg 53%
    14:00 -6°C° 0 mm 2 mps 510 mmHg 51%
    15:00 -7°C° 0 mm 2 mps 510 mmHg 50%
    16:00 -7°C° 0 mm 2 mps 509 mmHg 50%
    17:00 -9°C° 0 mm 3 mps 509 mmHg 49%
    18:00 -9°C° 0 mm 3 mps 509 mmHg 50%
    19:00 -10°C° 0 mm 3 mps 509 mmHg 51%
    20:00 -10°C° 0 mm 3 mps 509 mmHg 52%
    21:00 -10°C° 0 mm 3 mps 509 mmHg 54%
    22:00 -9°C° 0 mm 3 mps 509 mmHg 56%
    23:00 -9°C° 0 mm 3 mps 508 mmHg 59%
    Show more